Weather reports worldwide

Advertisment
Trapani/Birgi, Italy (16429): temperature & dewpoint: 19.09.2018 12:00:00 - 25.09.2018 12:00:00 (CEST)Trapani/Birgi, Italy (16429): wind speed: 19.09.2018 12:00:00 - 25.09.2018 12:00:00 (CEST)Trapani/Birgi, Italy (16429): wind direction: 19.09.2018 12:00:00 - 25.09.2018 12:00:00 (CEST)Trapani/Birgi, Italy (16429): reduced air pressure: 19.09.2018 12:00:00 - 25.09.2018 12:00:00 (CEST)Trapani/Birgi, Italy (16429): visibility: 19.09.2018 12:00:00 - 25.09.2018 12:00:00 (CEST)Trapani/Birgi, Italy (16429): sunshine duration: 19.09.2018 12:00:00 - 25.09.2018 12:00:00 (CEST)
Date & Time tt [°C] td [°C] ff [km/h] ff [kn] dd ppp [hPa] vv [km] sd [min]
25.09.2018 12:00:00 - - - - - - - -
25.09.2018 11:00:00 26,2 19,6 15 8 WSW 1019,1 10 60
25.09.2018 10:00:00 25,2 19,6 13 7 WSW 1018,6 20 60
25.09.2018 09:00:00 22,8 20,3 5 3 ESE 1018,0 18 18
25.09.2018 08:00:00 20,2 18,0 9 5 SE 1017,4 16 0
25.09.2018 07:00:00 20,2 18,0 5 3 SSE 1016,9 15 -
25.09.2018 06:00:00 20,4 18,2 5 3 ESE 1016,8 14 -
25.09.2018 05:00:00 21,4 19,3 4 2 E 1016,7 14 -
25.09.2018 04:00:00 21,4 19,3 5 3 SE 1016,9 14 -
25.09.2018 03:00:00 21,4 19,3 5 3 E 1017,0 14 -
25.09.2018 02:00:00 21,6 19,5 5 3 SSE 1016,9 14 -
25.09.2018 01:00:00 22,4 20,7 4 2 ENE 1016,7 14 -
25.09.2018 00:00:00 23,0 21,5 4 2 E 1016,5 14 -
24.09.2018 23:00:00 23,4 22,0 9 5 SE 1016,2 14 -
24.09.2018 22:00:00 24,0 22,4 0 0 N 1016,1 15 -
24.09.2018 21:00:00 25,0 23,2 4 2 N 1015,9 15 -
24.09.2018 20:00:00 25,6 23,5 9 5 NNW 1015,2 15 0
24.09.2018 19:00:00 26,2 23,9 11 6 NNW 1015,1 18 30
24.09.2018 18:00:00 27,2 24,1 16 9 NW 1015,3 20 60
24.09.2018 17:00:00 27,4 23,2 22 12 NW 1015,3 20 60
24.09.2018 16:00:00 27,8 23,6 28 15 NW 1015,5 20 60
24.09.2018 15:00:00 28,8 24,6 24 13 WNW 1015,8 20 60
24.09.2018 14:00:00 28,2 22,9 13 7 W 1016,0 20 60
24.09.2018 13:00:00 28,0 22,5 24 13 WSW 1016,2 20 60
24.09.2018 12:00:00 27,8 22,5 22 12 WSW 1016,9 20 60
24.09.2018 11:00:00 27,0 21,7 22 12 WSW 1017,1 18 48
24.09.2018 10:00:00 26,4 22,2 21 11 SW 1017,0 18 54
24.09.2018 09:00:00 24,8 21,1 22 12 W 1016,6 15 30
24.09.2018 08:00:00 22,0 19,9 9 5 SSW 1016,6 15 0
24.09.2018 07:00:00 23,0 20,0 9 5 SSW 1017,0 18 -
24.09.2018 06:00:00 21,8 20,1 9 5 SE 1017,1 12 -
24.09.2018 05:00:00 21,8 20,1 9 5 SSE 1017,4 12 -
24.09.2018 04:00:00 21,8 20,1 9 5 ESE 1018,2 12 -
24.09.2018 03:00:00 22,0 20,3 11 6 SE 1018,6 12 -
24.09.2018 02:00:00 22,0 20,3 9 5 SSE 1019,1 12 -
24.09.2018 01:00:00 22,4 20,7 9 5 SE 1019,2 12 -
24.09.2018 00:00:00 23,0 21,5 8 4 SE 1019,8 15 -
23.09.2018 23:00:00 23,6 22,0 8 4 SE 1019,8 15 -
23.09.2018 22:00:00 24,0 22,4 4 2 N 1019,7 15 -
23.09.2018 21:00:00 24,6 22,7 2 1 SE 1019,4 15 -
23.09.2018 20:00:00 25,0 23,1 8 4 SW 1019,4 15 -
23.09.2018 19:00:00 26,2 22,9 9 5 W 1019,5 15 42
23.09.2018 18:00:00 27,0 23,0 13 7 W 1019,6 18 60
23.09.2018 17:00:00 27,4 23,0 13 7 W 1019,7 18 60
23.09.2018 16:00:00 27,8 23,4 15 8 WSW 1020,0 20 60
23.09.2018 15:00:00 27,8 22,5 16 9 WSW 1020,3 20 60
23.09.2018 14:00:00 28,0 22,7 15 8 WSW 1020,7 20 60
23.09.2018 13:00:00 27,8 22,3 15 8 W 1020,9 20 60
23.09.2018 12:00:00 27,0 21,3 13 7 W 1020,9 15 60
23.09.2018 11:00:00 26,2 21,9 5 3 WSW 1020,7 15 54
23.09.2018 10:00:00 25,0 20,9 4 2 N 1020,2 15 36
23.09.2018 09:00:00 23,2 20,7 8 4 ESE 1019,8 15 42
23.09.2018 08:00:00 21,8 19,5 8 4 SE 1019,2 15 0
23.09.2018 07:00:00 22,0 19,5 8 4 ESE 1019,1 15 -
23.09.2018 06:00:00 21,8 19,5 8 4 ESE 1018,9 12 -
23.09.2018 05:00:00 21,8 19,4 5 3 E 1018,8 12 -
23.09.2018 04:00:00 21,8 19,4 5 3 E 1018,8 12 -
23.09.2018 03:00:00 22,0 20,3 8 4 SE 1019,0 12 -
23.09.2018 02:00:00 22,0 20,3 8 4 SE 1019,0 12 -
23.09.2018 01:00:00 22,0 20,3 2 1 ENE 1019,0 12 -
23.09.2018 00:00:00 23,0 21,3 4 2 E 1019,2 12 -
22.09.2018 23:00:00 23,8 22,4 2 1 E 1018,0 12 -
22.09.2018 22:00:00 24,0 22,3 5 3 SSE 1018,6 12 -
22.09.2018 21:00:00 25,0 23,2 4 2 E 1018,4 12 -
22.09.2018 20:00:00 25,0 23,3 5 3 WSW 1017,5 12 -
22.09.2018 19:00:00 27,0 23,2 8 4 WNW 1016,8 16 18
22.09.2018 18:00:00 28,0 22,0 9 5 SE 1016,1 18 60
22.09.2018 17:00:00 28,6 22,6 16 9 SSE 1016,1 18 60
22.09.2018 16:00:00 28,2 22,0 22 12 SE 1016,1 18 60
22.09.2018 15:00:00 28,2 21,5 24 13 SE 1016,1 18 48
22.09.2018 14:00:00 28,0 22,0 28 15 SE 1016,1 18 60
22.09.2018 13:00:00 26,4 22,2 24 13 SE 1016,0 15 36
22.09.2018 12:00:00 24,4 22,1 16 9 SSE 1015,7 14 24
22.09.2018 11:00:00 24,2 21,1 22 12 ESE 1015,2 14 12
22.09.2018 10:00:00 24,0 21,1 28 15 ESE 1014,4 16 12
22.09.2018 09:00:00 22,2 19,7 21 11 ESE 1014,1 7 -
22.09.2018 08:00:00 22,0 19,6 22 12 ESE 1013,4 10 -
22.09.2018 07:00:00 22,0 19,5 22 12 E 1013,1 12 -
22.09.2018 06:00:00 22,0 19,4 16 9 SE 1013,1 12 -
22.09.2018 05:00:00 22,0 19,4 13 7 SSE 1013,5 12 -
22.09.2018 04:00:00 22,4 20,0 15 8 SE 1013,5 12 -
22.09.2018 03:00:00 22,2 19,5 16 9 SE 1013,6 12 -
22.09.2018 02:00:00 22,2 19,7 13 7 SSE 1014,1 12 -
22.09.2018 01:00:00 22,4 20,0 18 10 SSE 1014,3 12 -
22.09.2018 00:00:00 22,8 20,3 13 7 S 1014,2 12 -
21.09.2018 23:00:00 22,8 20,5 13 7 SSE 1014,1 12 -
21.09.2018 22:00:00 22,8 20,7 18 10 SSE 1013,9 12 -
21.09.2018 21:00:00 23,0 21,3 21 11 SSE 1013,6 12 -
21.09.2018 20:00:00 23,2 21,5 15 8 SSE 1013,2 12 -
21.09.2018 19:00:00 24,0 21,9 24 13 S 1013,1 18 0
21.09.2018 18:00:00 25,8 22,5 21 11 SSW 1013,2 18 0
21.09.2018 17:00:00 25,0 21,3 21 11 S 1013,6 15 0
21.09.2018 16:00:00 24,0 21,3 16 9 S 1013,8 15 0
21.09.2018 15:00:00 24,0 21,3 28 15 S 1013,9 12 0
21.09.2018 14:00:00 22,0 19,7 11 6 W 1014,6 2,0 0
21.09.2018 13:00:00 23,0 20,5 8 4 WSW 1014,6 9 0
21.09.2018 12:00:00 22,0 19,4 11 6 NE 1015,0 9 0
21.09.2018 11:00:00 21,8 19,2 13 7 ESE 1014,6 9 0
21.09.2018 10:00:00 21,0 18,9 5 3 ESE 1014,6 2,0 0
21.09.2018 09:00:00 21,8 19,4 15 8 SSE 1014,2 4,0 0
21.09.2018 08:00:00 22,0 19,6 18 10 SSE 1013,8 10 0
21.09.2018 07:00:00 22,0 19,9 15 8 SSE 1013,1 12 -
21.09.2018 06:00:00 22,0 19,9 11 6 SE 1013,1 10 -
21.09.2018 05:00:00 21,8 19,7 15 8 SSE 1013,1 10 -
21.09.2018 04:00:00 22,0 19,9 16 9 SSE 1013,1 12 -
21.09.2018 03:00:00 22,0 19,9 16 9 SSE 1013,9 12 -
21.09.2018 02:00:00 22,2 20,3 18 10 SSE 1014,2 12 -
21.09.2018 01:00:00 22,0 19,9 18 10 SE 1014,6 12 -
21.09.2018 00:00:00 22,0 20,3 15 8 SSE 1015,1 12 -
20.09.2018 23:00:00 22,0 20,3 13 7 SE 1015,0 12 -
20.09.2018 22:00:00 22,2 20,5 11 6 SE 1015,1 12 -
20.09.2018 21:00:00 23,0 21,1 11 6 SE 1014,7 12 -
20.09.2018 20:00:00 23,0 20,9 9 5 SSE 1014,9 15 -
20.09.2018 19:00:00 24,2 20,9 9 5 S 1014,6 16 0
20.09.2018 18:00:00 25,2 20,7 15 8 SSW 1014,7 10 30
20.09.2018 17:00:00 26,4 22,7 18 10 SSW 1015,0 16 60
20.09.2018 16:00:00 26,2 22,3 21 11 SSW 1015,2 14 60
20.09.2018 15:00:00 26,6 21,8 22 12 S 1015,5 14 18
20.09.2018 14:00:00 24,8 21,9 18 10 S 1016,4 14 0
20.09.2018 13:00:00 23,2 21,1 21 11 S 1016,5 14 0
20.09.2018 12:00:00 23,2 21,5 13 7 S 1017,3 12 0
20.09.2018 11:00:00 25,0 21,5 18 10 S 1017,2 12 0
20.09.2018 10:00:00 24,8 20,7 15 8 S 1016,6 14 30
20.09.2018 09:00:00 23,8 19,7 18 10 SSE 1016,4 14 18
20.09.2018 08:00:00 22,2 19,9 18 10 SSE 1016,3 14 0
20.09.2018 07:00:00 21,2 19,5 15 8 SE 1016,2 14 -
20.09.2018 06:00:00 21,4 19,7 9 5 SE 1016,4 12 -
20.09.2018 05:00:00 22,0 19,9 11 6 SSE 1016,6 12 -
20.09.2018 04:00:00 22,0 19,9 16 9 SE 1016,4 12 -
20.09.2018 03:00:00 21,8 19,9 9 5 SE 1016,8 12 -
20.09.2018 02:00:00 22,0 19,7 11 6 S 1017,3 12 -
20.09.2018 01:00:00 22,0 20,5 15 8 SSE 1017,9 12 -
20.09.2018 00:00:00 22,0 20,3 11 6 SSE 1017,9 12 -
19.09.2018 23:00:00 22,8 21,1 15 8 SSE 1017,9 12 -
19.09.2018 22:00:00 22,8 20,5 13 7 S 1017,8 12 -
19.09.2018 21:00:00 23,0 21,1 9 5 SE 1017,8 12 -
19.09.2018 20:00:00 23,2 20,7 8 4 E 1017,4 12 0
19.09.2018 19:00:00 23,4 21,3 8 4 E 1017,0 15 0
19.09.2018 18:00:00 23,0 20,7 13 7 SSW 1016,9 15 0
19.09.2018 17:00:00 23,0 21,1 11 6 S 1016,8 15 0
19.09.2018 16:00:00 23,0 21,3 18 10 S 1017,1 12 0
19.09.2018 15:00:00 25,0 20,9 11 6 S 1018,3 15 0
19.09.2018 14:00:00 25,0 19,4 15 8 SE 1017,7 15 0
19.09.2018 13:00:00 25,0 20,3 15 8 S 1018,1 15 0
19.09.2018 12:00:00 23,8 21,7 21 11 W 1018,1 10 -

tt = temperature
td = dewpoint
ff = wind speed
dd = wind direction
ppp = reduced air pressure
vv = visibility
sd = sunshine duration

Next stations